Tracking 20232 objects as of 18-Jan-2020
HD Live streaming from Space Station
objects crossing your sky now

SL-12 DEB

Track SL-12 DEB now!
10-day predictions


NORAD ID: 41701
Int'l Code: 2010-007T
Perigee: 946.8 km
Apogee: 19,098.0 km
Inclination: 65.2 °
Period: 348.1 minutes
Semi major axis: 16393 km
RCS: Unknown
Launch date: March 1, 2010
Source: Commonwealth of Independent States (former USSR) (CIS)
Launch site: TYURATAM MISSILE AND SPACE COMPLEX (TTMTR)

Note: This is SATELLITE DEBRIS
aabbcc
Your satellite tracking list
Your tracking list is empty




NASA's NSSDC Master Catalog

Two Line Element Set (TLE):
1 41701U 10007T   20018.04727521  .00003601  00000-0  10853+0 0  9996
2 41701  65.1732  29.1829 5536137  24.3553 354.0152  4.13618142 82237
Source of the keplerian elements: AFSPC